User: anonymous   Login
Location: Caltech
(34.1382°N, 118.1253°W)
Time: 19:13:44
(UTC-08:00)
Language:

Cosmos 1733 Rocket - Orbit

View from above orbital plane
View from above orbital plane
View from above satellite
View from above satellite

Ground track
Ground track

The orbit data is extracted from the following two-line orbital elements,

1 16612U 86018B   18051.54576521  .00000063  00000-0  46528-5 0  9998
2 16612  82.5143  63.4132 0019006  56.3309  58.3943 14.84184512628299
Epoch (UTC): 20 February 2018 13:05:54
Eccentricity: 0.0019006
inclination: 82.5143°
perigee height: 603 km
apogee height: 629 km
right ascension of ascending node: 63.4132°
argument of perigee: 56.3309°
revolutions per day: 14.84184512
mean anomaly at epoch: 58.3943°
orbit number at epoch: 62829

The dashed part of the orbit path shows where the satellite is in the earth's shadow,  

DLR